TimeEST,TemperatureF,Dew PointF,Humidity,Sea Level PressureIn,VisibilityMPH,Wind Direction,Wind SpeedMPH,Gust SpeedMPH,PrecipitationIn,Events,Conditions,WindDirDegrees,DateUTC
12:54 AM,24.1,10.0,55,30.08,10.0,WNW,6.9,-,N/A,,Overcast,290,2013-02-21 05:54:00
1:54 AM,24.1,10.0,55,30.06,10.0,WNW,6.9,-,N/A,,Overcast,300,2013-02-21 06:54:00
2:54 AM,24.1,10.9,57,30.05,10.0,WNW,10.4,24.2,N/A,,Overcast,290,2013-02-21 07:54:00
3:54 AM,25.0,12.0,58,30.06,10.0,WNW,11.5,18.4,N/A,,Overcast,290,2013-02-21 08:54:00
4:54 AM,25.0,12.0,58,30.06,10.0,WNW,15.0,23.0,N/A,,Overcast,300,2013-02-21 09:54:00
5:54 AM,25.0,10.9,55,30.08,10.0,NW,12.7,20.7,N/A,,Overcast,310,2013-02-21 10:54:00
6:54 AM,25.0,10.9,55,30.09,10.0,WNW,10.4,19.6,N/A,,Overcast,290,2013-02-21 11:54:00
7:54 AM,26.1,12.0,55,30.10,10.0,WNW,10.4,-,N/A,,Overcast,290,2013-02-21 12:54:00
8:54 AM,26.1,12.0,55,30.11,10.0,NW,13.8,19.6,N/A,,Overcast,310,2013-02-21 13:54:00
9:54 AM,28.0,12.0,51,30.12,10.0,WNW,12.7,29.9,N/A,,Overcast,300,2013-02-21 14:54:00
10:54 AM,28.9,12.0,49,30.14,10.0,NW,18.4,25.3,N/A,,Overcast,320,2013-02-21 15:54:00
11:54 AM,30.9,12.9,47,30.12,10.0,WNW,15.0,24.2,N/A,,Mostly Cloudy,290,2013-02-21 16:54:00
12:54 PM,33.1,14.0,46,30.11,10.0,WNW,15.0,23.0,N/A,,Mostly Cloudy,290,2013-02-21 17:54:00
1:54 PM,35.1,14.0,42,30.11,10.0,NW,17.3,21.9,N/A,,Mostly Cloudy,320,2013-02-21 18:54:00
2:54 PM,36.0,14.0,41,30.12,10.0,NNW,15.0,20.7,N/A,,Partly Cloudy,330,2013-02-21 19:54:00
3:54 PM,35.1,14.0,42,30.13,10.0,NW,11.5,19.6,N/A,,Clear,310,2013-02-21 20:54:00
4:54 PM,34.0,15.1,46,30.15,10.0,NW,13.8,19.6,N/A,,Clear,320,2013-02-21 21:54:00
5:54 PM,33.1,15.1,48,30.16,10.0,NW,6.9,-,N/A,,Clear,310,2013-02-21 22:54:00
6:54 PM,30.9,15.1,52,30.24,10.0,WNW,5.8,-,N/A,,Clear,300,2013-02-21 23:54:00
7:54 PM,30.9,16.0,54,30.27,10.0,NNW,11.5,-,N/A,,Clear,330,2013-02-22 00:54:00
8:54 PM,30.0,15.1,54,30.29,10.0,North,11.5,18.4,N/A,,Clear,360,2013-02-22 01:54:00
9:54 PM,28.0,15.1,58,30.30,10.0,North,13.8,19.6,N/A,,Clear,350,2013-02-22 02:54:00
10:54 PM,25.0,14.0,63,30.32,10.0,NNE,6.9,-,N/A,,Clear,30,2013-02-22 03:54:00
11:54 PM,24.1,14.0,65,30.33,10.0,NNW,4.6,-,N/A,,Clear,340,2013-02-22 04:54:00